Regional Weather Roundup
Issued by NWS

Home | Current Version | Previous Version | Graphics & Text | Print | Product List | Glossary On
Versions: 1 2 3 4 5 6 7 8 9 10 11 12 13 14 15 16 17 18 19 20 21 22 23 24 25 26 27 28 29 30 31 32 33 34 35 36 37 38 39 40 41 42 43 44 45 46 47 48 49 50
000
ASUS43 KFSD 171802
RWRSD

WEATHER ROUNDUP FOR SOUTH DAKOTA
NATIONAL WEATHER SERVICE SIOUX FALLS SD
1200 PM CST FRI NOV 17 2017

NOTE: "FAIR" INDICATES FEW OR NO CLOUDS BELOW 12,000 FEET WITH NO
SIGNIFICANT WEATHER AND/OR OBSTRUCTIONS TO VISIBILITY.


SDZ001>005-009-010-012>017-171900-
NORTHWEST AND NORTH CENTRAL SOUTH DAKOTA

CITY           SKY/WX    TMP DP  RH WIND       PRES   REMARKS
BUFFALO          N/A     43  34  70 W8        29.58F
FAITH            N/A     42  39  89 W7        29.65F
MOBRIDGE       CLOUDY    43  30  60 VRB5      29.66F
$$

SDZ012>016-024>037-041>051-057-063-072>074-171900-
SOUTHWEST AND SOUTH CENTRAL SOUTH DAKOTA

CITY           SKY/WX    TMP DP  RH WIND       PRES   REMARKS
RAPID CTY ARPT CLOUDY    41  37  86 CALM      29.67F
PIERRE         CLOUDY    42  40  92 NW7       29.66F
CUSTER         CLOUDY    33  30  88 CALM      29.62F
ELLSWORTH AFB  CLOUDY    40  40 100 E3        29.66
PHILIP         CLOUDY    42  36  79 N5        29.69F
PINE RIDGE     CLOUDY    44  31  60 E9        29.66F
SPEARFISH      FAIR      37  36  93 CALM      29.65F
WINNER         CLOUDY    43  37  79 NW8       29.69R
$$

SDZ004>011-016>023-039-040-171900-
NORTHEAST SOUTH DAKOTA

CITY           SKY/WX    TMP DP  RH WIND       PRES   REMARKS
ABERDEEN       CLOUDY    41  31  67 N8        29.68F
WATERTOWN      CLOUDY    41  34  76 N13       29.62S
BROOKINGS      LGT RAIN  42  34  73 N13       29.59F
SISSETON         N/A     39  33  79 NW15      29.65S
$$

SDZ017-020-022-023-036>040-048>070-171900-
SOUTHEAST SOUTH DAKOTA

CITY           SKY/WX    TMP DP  RH WIND       PRES   REMARKS
SIOUX FALLS    CLOUDY    51  41  68 N10       29.57F
HURON          CLOUDY    43  33  68 N16G22    29.64F
CHAMBERLAIN    CLOUDY    46  35  67 NW8       29.67R
MITCHELL       LGT RAIN  45  36  70 N13       29.62S
YANKTON        PTSUNNY   44  35  70 NW16      29.60R
$$

ABBREVIATIONS USED IN REMARKS
   TC - TEMPERATURE IN CELSIUS
  WCI - WIND CHILL INDEX
   HX - HEAT INDEX
  VSB - VISIBILITY





USA.gov is the U.S. government's official web portal to all federal, state and local government web resources and services.